Location: Mountain_View
(35.6670°N, 81.4000°W)
Time: 14:23:11
(UTC-04:00)

Amateur Radio Satellites - All Passes

Search period start: 26 May 2016 13:53
Search period end: 27 May 2016 13:53
Location: Mountain_View, 35.6670°N, 81.4000°W

Satellite Date Start Highest point End Downlink Frequencies (MHz)
Time Altitude Azimuth
BEESAT 3 26 May 13:58:59 14:00:08 11° 314° (NW) 14:01:18 437.485
DANDE 26 May 14:13:25 14:18:08 35° 289° (WNW) 14:24:13 436.750
SRMSAT 26 May 14:15:03 14:15:47 10° 194° (SSW) 14:16:31 437.500
SPROUT 26 May 14:21:31 14:25:21 33° 288° (WNW) 14:29:10 437.525
Oscar 19 26 May 14:28:37 14:33:43 57° 259° (W) 14:38:51 437.125/150
AISAT 26 May 14:28:43 14:30:30 12° 295° (WNW) 14:32:16 437.250
CUSAT 1 26 May 14:35:21 14:38:36 14° 300° (WNW) 14:42:09 437.405
Gurwin Techsat 1B 26 May 14:39:46 14:45:02 73° 76° (ENE) 14:50:21 435.225
UKube-1 26 May 14:44:24 14:46:09 12° 295° (WNW) 14:47:54 .
TISAT 1 26 May 14:50:38 14:54:45 60° 285° (WNW) 14:58:50 437.305
SWISSCUBE 26 May 14:52:25 14:56:18 24° 96° (E) 15:00:11 437.505
AO-85 26 May 14:55:49 14:57:56 13° 43° (NE) 14:59:58 145.980
ITUPSAT 1 26 May 14:57:48 15:01:42 24° 96° (E) 15:05:35 437.325
ITAMSAT 1 26 May 15:07:11 15:12:09 51° 72° (ENE) 15:17:09 435.822/435.867
Cosmos 2491 26 May 15:10:22 15:17:44 29° 72° (ENE) 15:25:01 435.465 / 435.565
YUBILEINY 26 May 15:14:48 15:15:58 10° 75° (ENE) 15:17:08 435.215
AIST 2 26 May 15:15:56 15:19:50 41° 304° (WNW) 15:23:46 435.215
JAS-2 26 May 15:17:31 15:22:02 17° 272° (W) 15:26:47 435.910
BEESAT 26 May 15:21:45 15:26:21 45° 99° (E) 15:30:55 436.000
AO-7 26 May 15:41:20 15:49:15 53° 66° (ENE) 15:57:14 29.400- 29.500
RS-15 26 May 16:10:57 16:16:45 16° 97° (E) 16:22:40 29.354- 29.394
Gurwin Techsat 1B 26 May 16:23:51 16:25:28 11° 269° (W) 16:27:05 435.225
SWISSCUBE 26 May 16:29:54 16:34:03 30° 290° (WNW) 16:38:12 437.505
AO-85 26 May 16:34:29 16:39:02 72° 243° (WSW) 16:43:09 145.980
ITUPSAT 1 26 May 16:35:18 16:39:29 30° 290° (WNW) 16:43:39 437.325
KKS-1 26 May 16:39:18 16:43:21 34° 98° (E) 16:47:23 437.445
MOZHAYETS 4 26 May 16:45:00 16:49:06 31° 97° (E) 16:53:12
ITAMSAT 1 26 May 16:48:43 16:51:52 16° 267° (W) 16:55:02 435.822/435.867
BEESAT 26 May 17:00:43 17:03:44 17° 294° (WNW) 17:06:46 436.000
HORYU 2 26 May 17:00:54 17:05:04 42° 73° (ENE) 17:09:14 437.375
YUBILEINY 26 May 17:02:28 17:11:06 73° 93° (E) 17:19:45 435.215
Cosmos 2504 26 May 17:03:18 17:06:47 14° 79° (E) 17:10:21 435.465 / 435.565
Cosmos 2491 26 May 17:06:28 17:14:52 54° 270° (W) 17:23:14 435.465 / 435.565
NOAA 18 26 May 17:17:21 17:18:58 11° 60° (ENE) 17:20:36 137.9125
STARS 26 May 17:18:26 17:22:40 48° 100° (E) 17:26:52 437.465
NOAA 15 26 May 17:27:26 17:30:42 17° 64° (ENE) 17:33:58 137.62
Cubesat XI-IV 26 May 17:29:40 17:31:03 11° 61° (ENE) 17:32:27 437.490
AO-7 26 May 17:35:09 17:42:12 31° 262° (W) 17:49:20 29.400- 29.500
CUBESAT XI-V 26 May 18:07:00 18:10:55 26° 96° (E) 18:14:48 437.345
CUTE-I 26 May 18:12:42 18:17:16 30° 69° (ENE) 18:21:50 437.470
RS-15 26 May 18:15:52 18:27:05 81° 115° (ESE) 18:38:58 29.354- 29.394
KKS-1 26 May 18:16:36 18:19:38 18° 293° (WNW) 18:22:40 437.445
MOZHAYETS 4 26 May 18:22:30 18:26:04 22° 291° (WNW) 18:29:37
BRITE-PL 26 May 18:22:42 18:27:57 43° 72° (ENE) 18:33:19 437.365/2234.400
HORYU 2 26 May 18:39:20 18:41:47 15° 266° (W) 18:44:14 437.375
LilacSat-2 26 May 18:48:04 18:51:48 57° 76° (ENE) 18:55:32 437.200
Cosmos 2504 26 May 18:51:51 18:59:01 79° 277° (W) 19:06:33 435.465 / 435.565
NOAA 18 26 May 18:53:22 18:58:51 86° 260° (W) 19:04:20 137.9125
GOMX 1 26 May 18:53:56 18:59:03 41° 72° (ENE) 19:04:07 467.674
STARS 26 May 18:56:29 18:58:35 13° 295° (WNW) 19:00:39 437.465
YUBILEINY 26 May 19:02:31 19:08:40 21° 292° (WNW) 19:14:52 435.215
NOAA 15 26 May 19:04:46 19:09:58 56° 259° (W) 19:15:12 137.62
Cubesat XI-IV 26 May 19:05:02 19:10:21 85° 258° (WSW) 19:15:42 437.490
PCSat 26 May 19:09:21 19:13:37 23° 53° (NE) 19:17:50 145.827
CUTE 1.7 + AOD 2 26 May 19:40:46 19:42:30 12° 66° (ENE) 19:44:13 437.475
CUBESAT XI-V 26 May 19:44:15 19:48:12 27° 290° (WNW) 19:52:08 437.345
DOVE 4 26 May 19:48:42 19:53:56 69° 76° (ENE) 19:59:02 437.250
AUBIESAT-1 26 May 19:50:20 19:54:03 31° 68° (ENE) 19:57:32 437.475
CUTE-I 26 May 19:52:40 19:57:13 29° 263° (W) 20:01:48 437.470
M-CUBED/EXP-1 PRIME 26 May 19:55:33 19:59:39 45° 70° (ENE) 20:03:29 437.505
O/OREOS (USA 219) 26 May 20:00:15 20:04:18 32° 64° (ENE) 20:08:19 437.305
BRITE-PL 26 May 20:02:08 20:06:30 23° 267° (W) 20:10:58 437.365/2234.400
COMPASS 1 26 May 20:06:45 20:08:25 12° 66° (ENE) 20:10:05 437.405
AAUSAT CUBESAT 2 26 May 20:11:16 20:12:09 11° 66° (ENE) 20:13:02 437.432
HO-68 26 May 20:11:55 20:18:44 50° 69° (ENE) 20:25:34 435.675
CINEMA 3 26 May 20:28:24 20:33:04 53° 75° (ENE) 20:37:33 145.822/145.860
RS-15 26 May 20:31:05 20:40:53 31° 320° (NW) 20:51:12 29.354- 29.394
GOMX 1 26 May 20:32:53 20:37:09 23° 266° (W) 20:41:25 467.674
STRAND 1 26 May 20:33:39 20:38:47 67° 102° (ESE) 20:43:54 437.568
BEESAT 3 26 May 20:39:06 20:41:38 16° 50° (NE) 20:44:09 437.485
CANX-2 26 May 20:46:10 20:50:21 89° 78° (ENE) 20:54:35 2200.000
SEEDS 26 May 20:51:14 20:55:19 61° 76° (ENE) 20:59:28 437.485
PCSat 26 May 20:52:02 20:57:11 46° 249° (WSW) 21:02:19 145.827
Cosmos 2504 26 May 20:52:11 20:53:46 11° 297° (WNW) 20:55:21 435.465 / 435.565
GONETS M04 26 May 21:01:53 21:05:41 14° 77° (ENE) 21:09:29
CUTE 1.7 + AOD 2 26 May 21:13:50 21:17:52 47° 261° (W) 21:21:57 437.475
Oscar 11 26 May 21:13:56 21:17:23 24° 70° (ENE) 21:20:50 145.826/435.025
AUBIESAT-1 26 May 21:25:35 21:28:29 18° 259° (W) 21:31:17 437.475
CUBEBUG 2 26 May 21:25:38 21:30:03 68° 76° (ENE) 21:34:20 437.445
ZACube-1 26 May 21:25:47 21:29:27 28° 72° (ENE) 21:33:03 437.345
ISS 26 May 21:28:38 21:31:24 26° 131° (SE) 21:34:11 145.825
DOVE 4 26 May 21:29:56 21:31:56 12° 269° (W) 21:33:57 437.250
M-CUBED/EXP-1 PRIME 26 May 21:32:18 21:34:16 13° 261° (W) 21:36:11 437.505
BEESAT 2 26 May 21:38:50 21:42:35 38° 56° (NE) 21:46:18 435.950
COMPASS 1 26 May 21:39:33 21:43:32 47° 261° (W) 21:47:33 437.405
O/OREOS (USA 219) 26 May 21:40:18 21:43:25 19° 259° (W) 21:46:33 437.305
AIST 1 26 May 21:40:39 21:44:46 41° 92° (E) 21:48:55
Cosmos 2499 26 May 21:42:41 21:44:45 11° 77° (ENE) 21:46:51 435.465 / 435.565
AAUSAT CUBESAT 2 26 May 21:43:06 21:47:07 54° 260° (W) 21:51:10 437.432
HUMSAT D 26 May 21:46:44 21:47:15 10° 66° (ENE) 21:47:48 437.325/437.525
PRISM 26 May 21:51:21 21:55:33 85° 107° (ESE) 21:59:41 437.425
UWE-3 26 May 21:56:35 22:00:56 76° 258° (WSW) 22:05:11 435.000/436.395/437.385
HO-68 26 May 22:00:48 22:06:37 27° 264° (W) 22:12:30 435.675
FUNcube-1 26 May 22:03:48 22:08:02 79° 78° (ENE) 22:12:14 145.935
CINEMA 3 26 May 22:08:06 22:10:23 13° 267° (W) 22:12:37 145.822/145.860
STRAND 1 26 May 22:14:57 22:17:20 13° 297° (WNW) 22:19:44 437.568
BEESAT 3 26 May 22:15:47 22:19:29 39° 246° (WSW) 22:23:08 437.485
DELFI C3 26 May 22:21:54 22:25:49 70° 76° (ENE) 22:29:47 145.870
UNISAT 6 26 May 22:35:07 22:35:33 10° 92° (E) 22:36:00 437.425
TIGRISAT 26 May 22:41:52 22:43:31 12° 93° (E) 22:45:11 435.000
ESTCUBE 1 26 May 22:46:16 22:46:46 10° 64° (ENE) 22:47:15 437.505/2401.250
Oscar 11 26 May 22:49:54 22:53:23 24° 264° (W) 22:56:54 145.826/435.025
GONETS M04 26 May 22:52:15 23:01:05 85° 95° (E) 23:09:53
RS-15 26 May 22:53:21 22:59:14 14° 355° (N) 23:05:13 29.354- 29.394
PHONESAT 2.4 26 May 22:58:32 23:01:37 56° 154° (SSE) 23:04:42 2401.200-2431.200
ZACube-1 26 May 23:02:37 23:05:43 19° 265° (W) 23:08:47 437.345
ISS 26 May 23:04:59 23:07:47 26° 326° (NNW) 23:10:36 145.825
CUBEBUG 1 26 May 23:07:03 23:08:45 12° 65° (ENE) 23:10:27 437.445
DX 1 26 May 23:10:21 23:11:12 11° 64° (ENE) 23:12:04 434.975-435.025
VELOX 1 26 May 23:10:52 23:13:01 13° 65° (ENE) 23:15:09 145.980
DANDE 26 May 23:12:23 23:19:19 28° 69° (ENE) 23:25:43 436.750
ANTELSAT 26 May 23:13:18 23:17:08 31° 97° (E) 23:21:01 437.575/2403.000
50 SAT 26 May 23:17:43 23:19:36 14° 68° (ENE) 23:21:29 437.505
BEESAT 2 26 May 23:17:53 23:20:04 14° 251° (WSW) 23:22:14 435.950
HUMSAT D 26 May 23:18:23 23:22:23 54° 259° (W) 23:26:23 437.325/437.525
AIST 1 26 May 23:20:13 23:22:33 14° 287° (WNW) 23:24:53
CUSAT 1 26 May 23:27:57 23:35:37 62° 78° (ENE) 23:41:52 437.405
Cosmos 2499 26 May 23:29:17 23:36:26 87° 96° (E) 23:44:07 435.465 / 435.565
AIST 2 26 May 23:39:44 23:43:45 48° 58° (ENE) 23:47:46 435.215
AISAT 26 May 23:44:41 23:48:41 33° 71° (ENE) 23:52:43 437.250
UKube-1 26 May 23:58:11 00:01:57 30° 71° (ENE) 00:05:44 .
POPSAT HIP 1 27 May 00:05:23 00:08:26 19° 95° (E) 00:11:27 437.405
QB50P1 27 May 00:05:50 00:08:57 20° 95° (E) 00:12:02 145.935-145.965
QB50P2 27 May 00:07:36 00:10:56 22° 96° (E) 00:14:14 145.880/145.840
UNISAT 6 27 May 00:08:20 00:12:33 56° 285° (WNW) 00:16:49 437.425
POLYITAN 1 27 May 00:10:02 00:13:22 23° 96° (E) 00:16:42 437.675
TIGRISAT 27 May 00:16:18 00:20:25 48° 286° (WNW) 00:24:36 435.000
ESTCUBE 1 27 May 00:18:28 00:22:56 69° 258° (WSW) 00:27:28 437.505/2401.250
NANOSAT C BR1 27 May 00:24:18 00:28:03 31° 98° (E) 00:31:47 145.865
PHONESAT 2.4 27 May 00:35:29 00:38:27 39° 349° (N) 00:41:25 2401.200-2431.200
CUBEBUG 1 27 May 00:40:10 00:44:31 56° 259° (W) 00:48:54 437.445
DX 1 27 May 00:42:29 00:46:49 64° 258° (WSW) 00:51:11 434.975-435.025
VELOX 1 27 May 00:44:40 00:49:00 51° 260° (W) 00:53:23 145.980
JAS-2 27 May 00:46:04 00:49:14 13° 86° (E) 00:52:15 435.910
50 SAT 27 May 00:49:50 00:53:02 30° 262° (W) 00:56:17 437.505
ANTELSAT 27 May 00:50:33 00:53:38 19° 291° (WNW) 00:56:44 437.575/2403.000
GONETS M04 27 May 00:53:26 00:58:55 18° 294° (WNW) 01:04:26
DANDE 27 May 00:54:26 01:02:41 61° 267° (W) 01:10:01 436.750
DUCHIFAT 1 27 May 01:03:00 01:07:11 88° 282° (WNW) 01:11:21 145.980
RS-15 27 May 01:09:11 01:18:31 24° 32° (NNE) 01:27:53 29.354- 29.394
SPROUT 27 May 01:11:26 01:15:42 67° 258° (WSW) 01:19:59 437.525
CUSAT 1 27 May 01:11:28 01:16:48 22° 278° (W) 01:21:32 437.405
SO-50 27 May 01:18:50 01:23:44 90° 123° (ESE) 01:28:41 436.795
AIST 2 27 May 01:20:03 01:21:47 12° 252° (WSW) 01:23:30 435.215
AISAT 27 May 01:22:03 01:25:12 19° 265° (W) 01:28:23 437.250
BUGSAT 1 27 May 01:25:06 01:29:07 74° 101° (E) 01:33:07 437.445
Cosmos 2499 27 May 01:27:10 01:30:42 14° 296° (WNW) 01:34:21 435.465 / 435.565
UKube-1 27 May 01:34:49 01:38:00 20° 265° (W) 01:41:10 .
TISAT 1 27 May 01:38:56 01:43:07 65° 76° (ENE) 01:47:19 437.305
POPSAT HIP 1 27 May 01:40:36 01:44:12 28° 289° (WNW) 01:47:46 437.405
QB50P1 27 May 01:41:07 01:44:41 27° 289° (WNW) 01:48:14 145.935-145.965
QB50P2 27 May 01:43:13 01:46:39 25° 290° (WNW) 01:50:04 145.880/145.840
POLYITAN 1 27 May 01:45:41 01:49:05 24° 290° (WNW) 01:52:28 437.675
SWISSCUBE 27 May 01:56:31 02:00:01 21° 67° (ENE) 02:03:31 437.505
NANOSAT C BR1 27 May 02:00:42 02:03:31 18° 292° (WNW) 02:06:19 145.865
ITUPSAT 1 27 May 02:02:10 02:05:42 21° 67° (ENE) 02:09:13 437.325
PHONESAT 2.4 27 May 02:12:41 02:15:35 34° 7° (N) 02:18:29 2401.200-2431.200
BEESAT 27 May 02:25:20 02:29:41 37° 71° (ENE) 02:34:03 436.000
JAS-2 27 May 02:27:48 02:35:17 89° 284° (WNW) 02:41:53 435.910
Oscar 19 27 May 02:43:05 02:48:13 64° 101° (ESE) 02:53:17 437.125/150
Gurwin Techsat 1B 27 May 02:59:14 03:04:08 36° 98° (E) 03:08:59 435.225
SO-50 27 May 03:02:49 03:04:54 12° 316° (NW) 03:06:59 436.795
YUBILEINY 27 May 03:16:51 03:24:22 31° 73° (ENE) 03:31:52 435.215
RS-15 27 May 03:21:15 03:33:38 73° 58° (ENE) 03:45:52 29.354- 29.394
ITAMSAT 1 27 May 03:23:34 03:27:39 23° 95° (E) 03:31:43 435.822/435.867
SWISSCUBE 27 May 03:33:12 03:37:32 35° 262° (W) 03:41:54 437.505
KKS-1 27 May 03:34:52 03:38:23 23° 69° (ENE) 03:41:55 437.445
ITUPSAT 1 27 May 03:38:56 03:43:15 35° 262° (W) 03:47:37 437.325
MOZHAYETS 4 27 May 03:44:35 03:48:00 21° 68° (ENE) 03:51:25
AO-7 27 May 03:47:46 03:53:17 19° 93° (E) 03:58:46 29.400- 29.500
PHONESAT 2.4 27 May 03:49:24 03:52:32 86° 203° (SSW) 03:55:38 2401.200-2431.200
ISS 27 May 03:59:07 04:00:52 14° 26° (NNE) 04:02:37 145.825
BEESAT 27 May 04:04:12 04:07:33 19° 266° (W) 04:10:55 436.000
Cosmos 2491 27 May 04:07:39 04:15:30 37° 86° (E) 04:23:19 435.465 / 435.565
STARS 27 May 04:12:20 04:16:11 30° 70° (ENE) 04:20:01 437.465
JAS-2 27 May 04:15:04 04:19:03 16° 303° (WNW) 04:22:51 435.910
Oscar 19 27 May 04:24:22 04:26:56 14° 297° (WNW) 04:29:29 437.125/150
Gurwin Techsat 1B 27 May 04:39:37 04:43:51 25° 293° (WNW) 04:48:03 435.225
Cosmos 2504 27 May 04:46:55 04:54:25 34° 75° (ENE) 05:02:10 435.465 / 435.565
ITAMSAT 1 27 May 05:02:23 05:07:10 37° 290° (WNW) 05:11:56 435.822/435.867
CUBESAT XI-V 27 May 05:08:03 05:11:16 19° 67° (ENE) 05:14:30 437.345
KKS-1 27 May 05:10:58 05:14:48 28° 263° (W) 05:18:37 437.445
YUBILEINY 27 May 05:13:03 05:21:24 52° 270° (W) 05:29:47 435.215
MOZHAYETS 4 27 May 05:20:54 05:24:56 31° 263° (W) 05:28:59
PHONESAT 2.4 27 May 05:27:12 05:28:56 14° 216° (SW) 05:30:40 2401.200-2431.200
ISS 27 May 05:34:26 05:37:41 81° 221° (SW) 05:40:55 145.825
RS-15 27 May 05:35:10 05:45:02 30° 257° (WSW) 05:54:49 29.354- 29.394
AO-7 27 May 05:38:21 05:46:43 79° 290° (WNW) 05:55:05 29.400- 29.500
STARS 27 May 05:49:12 05:52:31 21° 265° (W) 05:55:50 437.465
Cosmos 2491 27 May 06:03:52 06:12:06 43° 284° (WNW) 06:20:24 435.465 / 435.565
HORYU 2 27 May 06:30:47 06:35:10 62° 285° (WNW) 06:39:32 437.375
BRITE-PL 27 May 06:32:41 06:35:39 16° 90° (E) 06:38:30 437.365/2234.400
CUTE-I 27 May 06:33:43 06:36:41 15° 92° (E) 06:39:39 437.470
Cosmos 2504 27 May 06:39:52 06:47:54 49° 271° (W) 06:56:16 435.465 / 435.565
JUGNU 27 May 06:43:07 06:45:22 12° 168° (SSE) 06:47:37 437.505
CUBESAT XI-V 27 May 06:44:00 06:48:19 38° 262° (W) 06:52:42 437.345
AO-85 27 May 06:44:13 06:49:40 78° 118° (ESE) 06:55:05 145.980
GOMX 1 27 May 07:01:28 07:03:20 12° 90° (E) 07:05:10 467.674
NOAA 18 27 May 07:18:27 07:23:47 51° 101° (E) 07:29:07 137.9125
NOAA 15 27 May 07:22:47 07:28:06 70° 103° (ESE) 07:33:20 137.62
Cubesat XI-IV 27 May 07:25:19 07:30:31 49° 100° (E) 07:35:42 437.490
AO-7 27 May 07:33:39 07:38:11 16° 308° (NW) 07:42:43 29.400- 29.500
STRAND 1 27 May 07:46:31 07:51:35 71° 75° (ENE) 07:56:41 437.568
DOVE 4 27 May 07:52:09 07:55:20 20° 94° (E) 07:58:26 437.250
LilacSat-2 27 May 07:58:24 08:02:08 58° 284° (WNW) 08:05:51 437.200
BRITE-PL 27 May 08:09:36 08:14:27 46° 288° (WNW) 08:18:55 437.365/2234.400
CUTE-I 27 May 08:11:47 08:17:03 58° 287° (WNW) 08:22:17 437.470
AO-85 27 May 08:27:20 08:30:44 17° 314° (NW) 08:34:05 145.980
CINEMA 3 27 May 08:27:51 08:29:51 13° 93° (E) 08:31:51 145.822/145.860
JUGNU 27 May 08:29:53 08:33:36 17° 178° (S) 08:37:19 437.505
CANX-2 27 May 08:34:57 08:38:02 19° 94° (E) 08:41:05 2200.000
SRMSAT 27 May 08:36:21 08:37:39 11° 166° (SSE) 08:38:57 437.500
GOMX 1 27 May 08:37:19 08:41:48 49° 287° (WNW) 08:46:00 467.674
PRISM 27 May 08:37:49 08:41:40 39° 72° (ENE) 08:45:33 437.425
SEEDS 27 May 08:39:47 08:41:44 13° 92° (E) 08:43:42 437.485
NOAA 18 27 May 09:00:15 09:04:00 19° 296° (WNW) 09:07:45 137.9125
CUTE 1.7 + AOD 2 27 May 09:01:37 09:05:32 34° 97° (E) 09:09:26 437.475
NOAA 15 27 May 09:04:46 09:07:12 13° 298° (WNW) 09:09:40 137.62
AUBIESAT-1 27 May 09:06:11 09:09:07 29° 103° (ESE) 09:12:03 437.475
Cubesat XI-IV 27 May 09:06:31 09:10:10 19° 295° (WNW) 09:13:49 437.490
GONETS M04 27 May 09:06:47 09:14:37 36° 74° (ENE) 09:22:23
M-CUBED/EXP-1 PRIME 27 May 09:12:12 09:15:22 46° 105° (ESE) 09:18:31 437.505
CUBEBUG 2 27 May 09:20:26 09:23:05 16° 94° (E) 09:25:46 437.445
Cosmos 2499 27 May 09:23:25 09:30:38 28° 72° (ENE) 09:37:57 435.465 / 435.565
COMPASS 1 27 May 09:25:20 09:29:07 32° 97° (E) 09:32:54 437.405
AIST 1 27 May 09:27:50 09:32:11 74° 266° (W) 09:36:28
AAUSAT CUBESAT 2 27 May 09:28:32 09:32:08 27° 96° (E) 09:35:44 437.432
DOVE 4 27 May 09:29:22 09:33:03 27° 290° (WNW) 09:36:37 437.250
HO-68 27 May 09:29:53 09:37:04 70° 104° (ESE) 09:44:12 435.675
STRAND 1 27 May 09:29:56 09:31:12 11° 269° (W) 09:32:28 437.568
PCSat 27 May 09:47:40 09:52:32 35° 109° (ESE) 09:57:24 145.827
UWE-3 27 May 09:49:28 09:52:54 24° 96° (E) 09:56:23 435.000/436.395/437.385
SO-50 27 May 09:53:35 09:57:54 35° 54° (NE) 10:02:04 436.795
FUNcube-1 27 May 09:55:32 09:58:23 18° 95° (E) 10:01:16 145.935
CINEMA 3 27 May 10:03:18 10:07:10 39° 287° (WNW) 10:11:02 145.822/145.860
DELFI C3 27 May 10:04:45 10:06:01 11° 92° (E) 10:07:17 145.870
O/OREOS (USA 219) 27 May 10:09:00 10:13:32 69° 108° (ESE) 10:18:05 437.305
ANTELSAT 27 May 10:10:00 10:13:10 20° 69° (ENE) 10:16:18 437.575/2403.000
CANX-2 27 May 10:10:07 10:13:52 30° 288° (WNW) 10:17:38 2200.000
SEEDS 27 May 10:13:35 10:17:37 43° 286° (WNW) 10:21:39 437.485
PRISM 27 May 10:14:57 10:17:06 14° 267° (W) 10:19:17 437.425
JUGNU 27 May 10:18:37 10:21:52 15° 188° (S) 10:25:07 437.505
SRMSAT 27 May 10:22:28 10:26:02 16° 176° (S) 10:29:36 437.500
CUTE 1.7 + AOD 2 27 May 10:38:15 10:41:05 18° 292° (WNW) 10:43:55 437.475
Oscar 11 27 May 10:38:55 10:43:17 74° 103° (ESE) 10:47:36 145.826/435.025
AUBIESAT-1 27 May 10:42:07 10:43:22 12° 297° (WNW) 10:44:36 437.475
ZACube-1 27 May 10:52:11 10:56:24 86° 283° (WNW) 11:00:40 437.345
CUBEBUG 2 27 May 10:56:03 10:59:47 33° 287° (WNW) 11:03:33 437.445
POPSAT HIP 1 27 May 10:57:12 10:58:16 11° 65° (ENE) 10:59:20 437.405
QB50P1 27 May 10:57:26 10:58:42 11° 65° (ENE) 10:59:57 145.935-145.965
QB50P2 27 May 10:58:59 11:00:48 13° 66° (ENE) 11:02:36 145.880/145.840
POLYITAN 1 27 May 11:01:22 11:03:14 13° 66° (ENE) 11:05:08 437.675
COMPASS 1 27 May 11:01:33 11:04:24 18° 292° (WNW) 11:07:16 437.405
GONETS M04 27 May 11:03:25 11:11:26 43° 272° (W) 11:19:26
UNISAT 6 27 May 11:03:56 11:08:20 86° 77° (ENE) 11:12:40 437.425
AAUSAT CUBESAT 2 27 May 11:04:19 11:07:26 21° 290° (WNW) 11:10:33 437.432
HUMSAT D 27 May 11:04:49 11:08:23 27° 97° (E) 11:11:59 437.325/437.525
TIGRISAT 27 May 11:11:38 11:16:02 82° 258° (WSW) 11:20:22 435.000
NANOSAT C BR1 27 May 11:14:28 11:17:13 17° 68° (ENE) 11:19:59 145.865
Cosmos 2499 27 May 11:15:39 11:24:05 59° 269° (W) 11:32:43 435.465 / 435.565
HO-68 27 May 11:19:03 11:24:04 21° 300° (WNW) 11:29:05 435.675
UWE-3 27 May 11:25:59 11:29:15 22° 290° (WNW) 11:32:33 435.000/436.395/437.385
BEESAT 2 27 May 11:29:46 11:31:49 14° 109° (ESE) 11:33:53 435.950
FUNcube-1 27 May 11:30:57 11:34:39 31° 288° (WNW) 11:38:25 145.935
PCSat 27 May 11:31:14 11:35:54 29° 305° (NW) 11:40:36 145.827
SO-50 27 May 11:34:38 11:38:06 21° 250° (WSW) 11:41:29 436.795
DELFI C3 27 May 11:37:13 11:41:05 44° 286° (WNW) 11:44:55 145.870
ANTELSAT 27 May 11:45:48 11:49:41 30° 263° (W) 11:53:30 437.575/2403.000
DUCHIFAT 1 27 May 11:51:49 11:55:50 44° 73° (ENE) 11:59:50 145.980
O/OREOS (USA 219) 27 May 11:52:10 11:53:25 11° 304° (NW) 11:54:40 437.305
BEESAT 3 27 May 12:03:13 12:07:06 68° 118° (ESE) 12:11:02 437.485
SRMSAT 27 May 12:11:03 12:14:27 16° 186° (S) 12:17:51 437.500
BUGSAT 1 27 May 12:11:50 12:15:38 34° 72° (ENE) 12:19:25 437.445
ESTCUBE 1 27 May 12:14:12 12:18:13 30° 97° (E) 12:22:12 437.505/2401.250
DANDE 27 May 12:17:43 12:21:54 24° 83° (E) 12:27:00 436.750
50 SAT 27 May 12:21:56 12:25:03 25° 97° (E) 12:28:10 437.505
CUSAT 1 27 May 12:25:05 12:31:01 70° 95° (E) 12:38:29 437.405
POPSAT HIP 1 27 May 12:29:21 12:33:31 56° 259° (W) 12:37:42 437.405
QB50P1 27 May 12:29:48 12:33:58 55° 259° (W) 12:38:08 145.935-145.965
CUBEBUG 1 27 May 12:31:57 12:35:52 32° 97° (E) 12:39:45 437.445
QB50P2 27 May 12:32:03 12:36:09 48° 260° (W) 12:40:16 145.880/145.840
DX 1 27 May 12:34:01 12:37:42 26° 97° (E) 12:41:21 434.975-435.025
POLYITAN 1 27 May 12:34:31 12:38:37 47° 260° (W) 12:42:43 437.675
JAS-2 27 May 12:35:24 12:41:47 34° 65° (ENE) 12:48:33 435.910
VELOX 1 27 May 12:37:48 12:41:53 36° 98° (E) 12:45:56 145.980
HUMSAT D 27 May 12:40:45 12:43:50 20° 290° (WNW) 12:46:55 437.325/437.525
NANOSAT C BR1 27 May 12:48:50 12:52:41 34° 262° (W) 12:56:32 145.865
SPROUT 27 May 13:00:50 13:04:21 25° 96° (E) 13:07:50 437.525
BEESAT 2 27 May 13:05:32 13:09:17 40° 303° (WNW) 13:13:03 435.950
AISAT 27 May 13:13:36 13:18:02 79° 284° (WNW) 13:22:24 437.250
UKube-1 27 May 13:23:24 13:27:45 84° 106° (ESE) 13:32:02 .
TISAT 1 27 May 13:27:48 13:29:30 12° 93° (E) 13:31:12 437.305
DUCHIFAT 1 27 May 13:29:50 13:31:42 13° 267° (W) 13:33:34 145.980
AIST 2 27 May 13:35:18 13:38:22 20° 111° (ESE) 13:41:26 435.215
BEESAT 3 27 May 13:44:20 13:45:14 11° 314° (NW) 13:46:08 437.485
